User: anonymous   Login
Location: Unspecified
(0.0000°N, 0.0000°E)
Time: 00:00:07
(UTC+00:00)
Language:

Snapshot - Orbit

View from above orbital plane
View from above orbital plane
View from above satellite
View from above satellite

Ground track
Ground track

The orbit data is extracted from the following two-line orbital elements,

1 01314U 65027A   15064.52212478  .00000028  00000-0  79913-4 0  9999
2 01314 090.2920 261.7238 0028938 234.2605 153.3222 12.91739659 99305
Epoch (UTC): 05 March 2015 12:31:51
Eccentricity: 0.0028938
inclination: 90.2920°
perigee height: 1272 km
apogee height: 1317 km
right ascension of ascending node: 261.7238°
argument of perigee: 234.2605°
revolutions per day: 12.91739659
mean anomaly at epoch: 153.3222°
orbit number at epoch: 9930

The dashed part of the orbit path shows where the satellite is in the earth's shadow,  

DLR